KD5NDU-15 Weather Reports


time (UTC)temp
C
wind
direction
speed
KPH
gust
KPH
rain 1hr
cm
rain 24hr
cm
rain mn
cm
humidity
%
barometer
mb
20260905034632 26 82 0.0 0.0 0.00 0.00 0.00 85 1013.9
20260905034132 26 82 0.0 0.0 0.00 0.00 0.00 84 1013.9
20260905033632 26 82 1.6 1.6 0.00 0.00 0.00 84 1014.0
20260905033132 26 82 1.6 3.2 0.00 0.00 0.00 85 1014.0
20260905032632 26 82 1.6 3.2 0.00 0.00 0.00 84 1014.0
20260905032132 26 82 0.0 3.2 0.00 0.00 0.00 84 1014.1
20260905031632 27 83 0.0 1.6 0.00 0.00 0.00 82 1014.1
20260905031132 27 83 0.0 0.0 0.00 0.00 0.00 83 1014.1
20260905030632 27 83 0.0 0.0 0.00 0.00 0.00 84 1014.0
20260905030132 27 83 0.0 1.6 0.00 0.00 0.00 84 1014.0
20260905025632 27 83 0.0 1.6 0.00 0.00 0.00 84 1014.1
20260905025132 27 83 0.0 0.0 0.00 0.00 0.00 83 1014.1
20260905024632 27 83 0.0 0.0 0.00 0.00 0.00 82 1014.1
20260905024132 27 83 0.0 0.0 0.00 0.00 0.00 80 1014.2
20260905023632 27 83 0.0 0.0 0.00 0.00 0.00 79 1014.1
20260905023132 27 83 0.0 1.6 0.00 0.00 0.00 79 1014.2
20260905022632 28 83 0.0 1.6 0.00 0.00 0.00 81 1014.3
20260905022132 28 83 0.0 1.6 0.00 0.00 0.00 79 1014.3
20260905021632 28 83 0.0 0.0 0.00 0.00 0.00 79 1014.3
20260905021132 28 83 1.6 3.2 0.00 0.00 0.00 79 1014.3
20260905020632 28 82 1.6 3.2 0.00 0.00 0.00 75 1014.2
20260905020132 28 79 0.0 4.8 0.00 0.00 0.00 77 1014.2
20260905015632 28 77 0.0 3.2 0.00 0.00 0.00 79 1014.2
20260905015132 28 77 1.6 3.2 0.00 0.00 0.00 81 1014.3
20260905014632 28 106 0.0 3.2 0.00 0.00 0.00 82 1014.2
20260905014132 28 105 0.0 0.0 0.00 0.00 0.00 79 1014.1
20260905013632 28 105 0.0 3.2 0.00 0.00 0.00 78 1014.0
20260905013132 29 98 0.0 1.6 0.00 0.00 0.00 75 1014.0
20260905012632 29 98 0.0 4.8 0.00 0.00 0.00 75 1014.0
20260905012132 29 96 0.0 1.6 0.00 0.00 0.00 75 1014.1
20260905011632 29 94 1.6 3.2 0.00 0.00 0.00 75 1014.1
20260905011132 29 71 1.6 4.8 0.00 0.00 0.00 74 1014.0
20260905010632 29 139 1.6 3.2 0.00 0.00 0.00 73 1014.1
20260905010132 30 91 1.6 6.4 0.00 0.00 0.00 74 1014.1
20260905005632 30 101 1.6 4.8 0.00 0.00 0.00 72 1014.2
20260905005132 30 177 0.0 3.2 0.00 0.00 0.00 71 1014.1
20260905004632 30 179 1.6 1.6 0.00 0.00 0.00 69 1014.1
20260905004132 30 179 1.6 3.2 0.00 0.00 0.00 68 1014.0
20260905003632 31 179 1.6 3.2 0.00 0.00 0.00 67 1014.0
20260905003132 31 179 0.0 6.4 0.00 0.00 0.00 66 1014.1
20260905002632 31 108 0.0 1.6 0.00 0.00 0.00 68 1014.1
20260905002132 31 108 0.0 3.2 0.00 0.00 0.00 68 1014.0
20260905001632 31 108 1.6 1.6 0.00 0.00 0.00 64 1014.0
20260905001132 31 108 1.6 3.2 0.00 0.00 0.00 64 1014.0
20260905000632 31 134 0.0 3.2 0.00 0.00 0.00 63 1013.9
20260905000132 32 214 0.0 0.0 0.00 0.00 0.00 62 1013.7
20260904235632 32 214 1.6 0.0 0.00 0.00 0.00 63 1013.7
20260904235132 32 214 3.2 3.2 0.00 0.00 0.00 62 1013.7
20260904234632 32 214 1.6 6.4 0.00 0.00 0.00 62 1013.6
20260904234132 32 321 0.0 3.2 0.00 0.00 0.00 63 1013.5
20260904233632 32 30 0.0 1.6 0.00 0.00 0.00 62 1013.6
20260904233132 32 30 0.0 1.6 0.00 0.00 0.00 62 1013.5
20260904232632 32 30 1.6 3.2 0.00 0.00 0.00 61 1013.7
20260904232132 32 35 3.2 6.4 0.00 0.00 0.00 58 1013.7
20260904231632 33 161 4.8 8.0 0.00 0.00 0.00 59 1013.8
20260904231132 33 6 6.4 17.7 0.00 0.00 0.00 57 1013.8
20260904230632 34 178 6.4 17.7 0.00 0.00 0.00 58 1013.6
20260904230132 35 134 4.8 11.3 0.00 0.00 0.00 58 1013.4
20260904225632 35 176 6.4 9.7 0.00 0.00 0.00 60 1013.3
20260904225132 35 229 8.0 12.9 0.00 0.00 0.00 59 1013.0
20260904224632 35 223 8.0 14.5 0.00 0.00 0.00 59 1013.1
20260904224132 35 224 8.0 14.5 0.00 0.00 0.00 58 1013.1
20260904223632 35 200 6.4 12.9 0.00 0.00 0.00 58 1013.1
20260904223132 35 253 6.4 11.3 0.00 0.00 0.00 57 1013.2
20260904222632 35 240 6.4 12.9 0.00 0.00 0.00 57 1013.2
20260904222132 36 242 6.4 9.7 0.00 0.00 0.00 55 1013.2
20260904221632 36 257 3.2 8.0 0.00 0.00 0.00 53 1013.1
20260904221132 37 144 1.6 8.0 0.00 0.00 0.00 50 1013.0
20260904220632 37 356 1.6 4.8 0.00 0.00 0.00 49 1013.0
20260904220132 37 144 1.6 6.4 0.00 0.00 0.00 48 1012.8
20260904215632 37 58 1.6 6.4 0.00 0.00 0.00 47 1012.8
20260904215132 37 127 3.2 6.4 0.00 0.00 0.00 47 1012.7
20260904214632 37 98 4.8 6.4 0.00 0.00 0.00 47 1012.7
20260904214132 37 3 6.4 8.0 0.00 0.00 0.00 47 1012.7
20260904213632 38 244 6.4 12.9 0.00 0.00 0.00 47 1012.7
20260904213132 37 95 8.0 16.1 0.00 0.00 0.00 47 1012.9
20260904212632 38 217 6.4 20.9 0.00 0.00 0.00 47 1012.7
20260904212132 38 139 6.4 12.9 0.00 0.00 0.00 47 1012.8
20260904211632 37 179 4.8 12.9 0.00 0.00 0.00 47 1012.9
20260904211132 38 162 4.8 8.0 0.00 0.00 0.00 47 1012.9
20260904210632 38 160 4.8 12.9 0.00 0.00 0.00 47 1012.8
20260904210132 37 94 4.8 11.3 0.00 0.00 0.00 47 1012.9
20260904205632 37 184 6.4 12.9 0.00 0.00 0.00 48 1013.0
20260904205132 38 148 4.8 12.9 0.00 0.00 0.00 47 1013.2
20260904204632 38 161 4.8 11.3 0.00 0.00 0.00 47 1013.2
20260904204134 38 59 6.4 14.5 0.00 0.00 0.00 46 1013.3
20260904203632 38 113 6.4 9.7 0.00 0.00 0.00 46 1013.4
20260904203132 38 137 4.8 12.9 0.00 0.00 0.00 46 1013.4
20260904202632 38 130 4.8 11.3 0.00 0.00 0.00 45 1013.4
20260904202132 38 144 4.8 17.7 0.00 0.00 0.00 47 1013.5
20260904201632 38 207 4.8 9.7 0.00 0.00 0.00 47 1013.6
20260904201132 37 167 4.8 11.3 0.00 0.00 0.00 48 1013.7
20260904200632 37 214 4.8 9.7 0.00 0.00 0.00 48 1013.8
20260904200132 37 119 3.2 11.3 0.00 0.00 0.00 48 1013.9
20260904195632 37 108 3.2 8.0 0.00 0.00 0.00 50 1014.0
20260904195132 37 207 4.8 9.7 0.00 0.00 0.00 49 1014.2
20260904194632 37 208 4.8 14.5 0.00 0.00 0.00 49 1014.2
20260904194132 37 170 4.8 14.5 0.00 0.00 0.00 48 1014.3
20260904193632 38 167 4.8 11.3 0.00 0.00 0.00 48 1014.5
20260904193132 38 194 6.4 9.7 0.00 0.00 0.00 48 1014.6
20260904192632 38 235 4.8 12.9 0.00 0.00 0.00 47 1014.6
20260904192132 38 203 3.2 11.3 0.00 0.00 0.00 47 1014.7
20260904191632 37 347 3.2 6.4 0.00 0.00 0.00 48 1014.7
20260904191132 37 3 4.8 8.0 0.00 0.00 0.00 48 1014.8
20260904190632 37 240 6.4 12.9 0.00 0.00 0.00 49 1014.9
20260904190132 37 182 4.8 11.3 0.00 0.00 0.00 48 1015.0
20260904185632 37 178 4.8 9.7 0.00 0.00 0.00 51 1015.1
20260904185132 37 220 8.0 9.7 0.00 0.00 0.00 50 1015.1
20260904184632 37 239 8.0 17.7 0.00 0.00 0.00 50 1015.1
20260904184132 37 235 8.0 12.9 0.00 0.00 0.00 51 1015.1
20260904183632 37 208 6.4 20.9 0.00 0.00 0.00 51 1015.2
20260904183132 36 195 4.8 12.9 0.00 0.00 0.00 54 1015.3
20260904182632 36 157 3.2 6.4 0.00 0.00 0.00 54 1015.4
20260904182132 36 109 3.2 11.3 0.00 0.00 0.00 53 1015.6
20260904181632 36 158 4.8 6.4 0.00 0.00 0.00 52 1015.5
20260904181132 36 197 6.4 9.7 0.00 0.00 0.00 50 1015.7
20260904180632 36 207 6.4 14.5 0.00 0.00 0.00 50 1015.9
20260904180132 36 245 4.8 12.9 0.00 0.00 0.00 52 1015.8
20260904175632 36 236 4.8 11.3 0.00 0.00 0.00 54 1015.9
20260904175133 35 153 4.8 8.0 0.00 0.00 0.00 56 1015.9
20260904174633 35 182 4.8 6.4 0.00 0.00 0.00 53 1015.9
20260904174133 35 171 4.8 11.3 0.00 0.00 0.00 54 1016.1
20260904173633 36 74 4.8 9.7 0.00 0.00 0.00 55 1016.0
20260904173133 36 181 3.2 16.1 0.00 0.00 0.00 54 1016.2
20260904172633 36 140 3.2 6.4 0.00 0.00 0.00 54 1016.3
20260904172133 36 359 4.8 9.7 0.00 0.00 0.00 54 1016.4
20260904171633 36 0 4.8 12.9 0.00 0.00 0.00 53 1016.6
20260904171133 37 160 6.4 12.9 0.00 0.00 0.00 53 1016.6
20260904170633 37 179 6.4 11.3 0.00 0.00 0.00 53 1016.6
20260904170133 37 204 4.8 9.7 0.00 0.00 0.00 53 1016.6
20260904165633 37 172 4.8 11.3 0.00 0.00 0.00 54 1016.6
20260904165133 37 188 1.6 12.9 0.00 0.00 0.00 54 1016.6
20260904164633 36 60 1.6 4.8 0.00 0.00 0.00 56 1016.6
20260904164133 36 51 3.2 8.0 0.00 0.00 0.00 58 1016.7
20260904163633 36 165 3.2 6.4 0.00 0.00 0.00 60 1016.8
20260904163133 35 184 3.2 8.0 0.00 0.00 0.00 62 1016.8
20260904162633 35 215 3.2 8.0 0.00 0.00 0.00 63 1016.7
20260904162133 35 237 4.8 8.0 0.00 0.00 0.00 63 1016.7
20260904161633 34 208 4.8 9.7 0.00 0.00 0.00 63 1016.7
20260904161133 34 245 4.8 9.7 0.00 0.00 0.00 64 1016.7
20260904160633 35 115 4.8 11.3 0.00 0.00 0.00 64 1016.7
20260904160133 35 192 3.2 11.3 0.00 0.00 0.00 64 1016.7
20260904155633 35 230 1.6 4.8 0.00 0.00 0.00 62 1016.6
20260904155133 35 1 1.6 3.2 0.00 0.00 0.00 65 1016.6
20260904154633 34 245 3.2 6.4 0.00 0.00 0.00 66 1016.6
20260904154133 34 293 1.6 4.8 0.00 0.00 0.00 66 1016.6
20260904153633 34 214 1.6 4.8 0.00 0.00 0.00 67 1016.8
20260904153133 33 133 1.6 4.8 0.00 0.00 0.00 67 1016.7
20260904152633 33 215 3.2 6.4 0.00 0.00 0.00 67 1016.8
20260904152133 33 150 1.6 6.4 0.00 0.00 0.00 68 1016.7
20260904151633 33 198 1.6 4.8 0.00 0.00 0.00 68 1016.8
20260904151133 33 262 1.6 4.8 0.00 0.00 0.00 70 1016.8
20260904150633 33 156 1.6 3.2 0.00 0.00 0.00 69 1016.6
20260904150133 33 193 3.2 4.8 0.00 0.00 0.00 71 1016.6
20260904145633 32 143 1.6 4.8 0.00 0.00 0.00 71 1016.8
20260904145133 32 231 1.6 1.6 0.00 0.00 0.00 73 1016.8
20260904144633 31 229 3.2 4.8 0.00 0.00 0.00 74 1016.7
20260904144133 31 229 4.8 6.4 0.00 0.00 0.00 74 1016.6
20260904143633 31 229 3.2 11.3 0.00 0.00 0.00 73 1016.5
20260904143133 31 221 1.6 9.7 0.00 0.00 0.00 74 1016.5
20260904142633 31 215 3.2 6.4 0.00 0.00 0.00 74 1016.5
20260904142133 31 210 1.6 4.8 0.00 0.00 0.00 75 1016.4
20260904141633 30 210 3.2 4.8 0.00 0.00 0.00 76 1016.4
20260904141133 30 205 3.2 6.4 0.00 0.00 0.00 77 1016.5
20260904140633 30 213 3.2 8.0 0.00 0.00 0.00 77 1016.5
20260904140133 29 194 3.2 4.8 0.00 0.00 0.00 80 1016.5
20260904135633 29 193 1.6 6.4 0.00 0.00 0.00 80 1016.4
20260904135133 28 182 1.6 3.2 0.00 0.00 0.00 81 1016.3
20260904134633 28 182 1.6 4.8 0.00 0.00 0.00 81 1016.3
20260904134133 28 166 0.0 3.2 0.00 0.00 0.00 82 1016.4
20260904133633 28 162 0.0 0.0 0.00 0.00 0.00 83 1016.4
20260904133133 27 162 0.0 1.6 0.00 0.00 0.00 85 1016.3
20260904132633 27 162 0.0 1.6 0.00 0.00 0.00 85 1016.3
20260904132133 27 162 0.0 3.2 0.00 0.00 0.00 88 1016.2
20260904131633 26 162 0.0 0.0 0.00 0.00 0.00 91 1016.2
20260904131133 25 162 0.0 0.0 0.00 0.00 0.00 93 1016.3
20260904130633 25 162 0.0 0.0 0.00 0.00 0.00 94 1016.2
20260904130133 25 162 0.0 0.0 0.00 0.00 0.00 94 1016.4
20260904125633 24 162 0.0 0.0 0.00 0.00 0.00 94 1016.3
20260904125133 24 162 0.0 0.0 0.00 0.00 0.00 94 1016.2
20260904124633 24 162 0.0 3.2 0.00 0.00 0.00 94 1016.0
20260904124133 24 162 0.0 0.0 0.00 0.00 0.00 94 1015.9
20260904123633 23 162 0.0 1.6 0.00 0.00 0.00 94 1015.8
20260904123133 23 162 0.0 0.0 0.00 0.00 0.00 94 1015.7
20260904122633 23 162 0.0 1.6 0.00 0.00 0.00 94 1015.7
20260904122133 23 162 0.0 0.0 0.00 0.00 0.00 94 1015.7
20260904121633 23 162 0.0 0.0 0.00 0.00 0.00 94 1015.7
20260904121133 23 162 0.0 0.0 0.00 0.00 0.00 94 1015.7
20260904120633 23 162 0.0 0.0 0.00 0.00 0.00 94 1015.6
20260904120133 23 162 0.0 0.0 0.00 0.00 0.00 94 1015.7
20260904115633 23 162 0.0 0.0 0.00 0.00 0.00 94 1015.5
20260904115133 23 162 0.0 0.0 0.00 0.00 0.00 94 1015.6
20260904114633 23 162 0.0 0.0 0.00 0.00 0.00 94 1015.5
20260904114133 23 162 0.0 1.6 0.00 0.00 0.00 94 1015.5
20260904113633 23 162 0.0 0.0 0.00 0.00 0.00 94 1015.4
20260904113133 23 162 0.0 0.0 0.00 0.00 0.00 94 1015.4
20260904112633 23 162 0.0 3.2 0.00 0.00 0.00 94 1015.3
20260904112133 23 162 0.0 1.6 0.00 0.00 0.00 93 1015.3
20260904111633 23 162 0.0 0.0 0.00 0.00 0.00 93 1015.3
20260904111133 23 162 0.0 0.0 0.00 0.00 0.00 93 1015.2
20260904110633 23 162 0.0 0.0 0.00 0.00 0.00 93 1015.2
20260904110133 23 162 0.0 1.6 0.00 0.00 0.00 93 1015.3
20260904105633 23 162 0.0 1.6 0.00 0.00 0.00 93 1015.2
20260904105133 23 162 1.6 3.2 0.00 0.00 0.00 93 1015.1
20260904104633 23 163 1.6 3.2 0.00 0.00 0.00 93 1015.2
20260904104133 23 159 1.6 4.8 0.00 0.00 0.00 93 1015.1
20260904103633 23 159 1.6 3.2 0.00 0.00 0.00 93 1015.0
20260904103133 23 159 0.0 3.2 0.00 0.00 0.00 93 1015.1
20260904102633 23 159 0.0 3.2 0.00 0.00 0.00 94 1015.1
20260904102133 23 158 0.0 1.6 0.00 0.00 0.00 93 1015.2
20260904101633 23 158 0.0 1.6 0.00 0.00 0.00 93 1015.1
20260904101133 23 158 0.0 0.0 0.00 0.00 0.00 93 1015.1
20260904100633 23 158 1.6 3.2 0.00 0.00 0.00 93 1015.1
20260904100133 23 151 1.6 3.2 0.00 0.00 0.00 93 1015.1
20260904095633 23 150 1.6 1.6 0.00 0.00 0.00 93 1015.0
20260904095133 23 151 1.6 3.2 0.00 0.00 0.00 93 1014.9
20260904094633 23 161 1.6 4.8 0.00 0.00 0.00 94 1015.0
20260904094133 23 151 0.0 4.8 0.00 0.00 0.00 94 1014.9
20260904093633 23 143 0.0 1.6 0.00 0.00 0.00 93 1014.8
20260904093133 23 143 0.0 3.2 0.00 0.00 0.00 94 1014.9
20260904092633 23 79 0.0 3.2 0.00 0.00 0.00 94 1014.9
20260904092133 23 84 0.0 4.8 0.00 0.00 0.00 94 1014.9
20260904091633 23 155 0.0 0.0 0.00 0.00 0.00 94 1014.9
20260904091133 23 172 0.0 0.0 0.00 0.00 0.00 93 1014.9
20260904090633 23 172 0.0 0.0 0.00 0.00 0.00 94 1014.8
20260904090133 23 172 0.0 0.0 0.00 0.00 0.00 94 1014.7
20260904085633 23 173 0.0 0.0 0.00 0.00 0.00 94 1014.7
20260904085133 23 165 0.0 0.0 0.00 0.00 0.00 94 1014.6
20260904084633 23 165 0.0 0.0 0.00 0.00 0.00 94 1014.5
20260904084133 23 165 0.0 0.0 0.00 0.00 0.00 94 1014.6
20260904083633 23 165 0.0 0.0 0.00 0.00 0.00 94 1014.6
20260904083133 23 165 0.0 0.0 0.00 0.00 0.00 94 1014.5
20260904082633 23 165 0.0 0.0 0.00 0.00 0.00 94 1014.6
20260904082133 23 165 0.0 0.0 0.00 0.00 0.00 94 1014.4
20260904081633 23 165 0.0 0.0 0.00 0.00 0.00 94 1014.4
20260904081133 23 165 0.0 0.0 0.00 0.00 0.00 94 1014.4
20260904080633 23 165 0.0 0.0 0.00 0.00 0.00 94 1014.4
20260904080133 23 165 0.0 0.0 0.00 0.00 0.00 94 1014.3
20260904075633 23 165 0.0 0.0 0.00 0.00 0.00 93 1014.4
20260904075133 23 165 0.0 0.0 0.00 0.00 0.00 93 1014.4
20260904074633 23 165 0.0 0.0 0.00 0.00 0.00 93 1014.4
20260904074133 23 165 0.0 0.0 0.00 0.00 0.00 93 1014.3
20260904073633 23 165 0.0 0.0 0.00 0.00 0.00 93 1014.3
20260904073133 23 165 0.0 0.0 0.00 0.00 0.00 93 1014.3
20260904072633 23 165 0.0 0.0 0.00 0.00 0.00 93 1014.4
20260904072133 23 165 0.0 0.0 0.00 0.00 0.00 93 1014.4
20260904071633 23 165 0.0 0.0 0.00 0.00 0.00 93 1014.4
20260904071133 23 165 0.0 0.0 0.00 0.00 0.00 93 1014.4
20260904070633 23 165 0.0 0.0 0.00 0.00 0.00 93 1014.5
20260904070133 23 165 0.0 0.0 0.00 0.00 0.00 93 1014.5
20260904065633 23 165 0.0 0.0 0.00 0.00 0.00 93 1014.5
20260904065133 23 165 0.0 0.0 0.00 0.00 0.00 93 1014.5
20260904064633 23 165 0.0 0.0 0.00 0.00 0.00 93 1014.5
20260904064133 23 165 0.0 0.0 0.00 0.00 0.00 93 1014.6
20260904063633 23 165 0.0 0.0 0.00 0.00 0.00 93 1014.6
20260904063133 23 165 0.0 0.0 0.00 0.00 0.00 92 1014.7
20260904062633 23 165 0.0 0.0 0.00 0.00 0.00 92 1014.7
20260904062133 23 165 0.0 0.0 0.00 0.00 0.00 92 1014.6
20260904061633 24 165 0.0 0.0 0.00 0.00 0.00 92 1014.6
20260904061133 24 165 0.0 0.0 0.00 0.00 0.00 92 1014.6
20260904060633 24 165 0.0 0.0 0.00 0.00 0.00 92 1014.6
20260904060133 24 165 0.0 0.0 0.00 0.00 0.00 92 1014.7
20260904055633 24 165 0.0 0.0 0.00 0.00 0.00 91 1014.5
20260904055133 25 165 0.0 0.0 0.00 0.00 0.00 90 1014.6
20260904054633 25 165 0.0 0.0 0.00 0.00 0.00 90 1014.7
20260904054133 25 165 0.0 0.0 0.00 0.00 0.00 90 1014.8
20260904053633 25 165 0.0 0.0 0.00 0.00 0.00 90 1014.9
20260904053133 25 165 0.0 0.0 0.00 0.00 0.00 90 1014.8
20260904052633 24 165 0.0 0.0 0.00 0.00 0.00 91 1014.7
20260904052133 24 165 0.0 0.0 0.00 0.00 0.00 91 1014.8
20260904051633 25 165 0.0 0.0 0.00 0.00 0.00 91 1014.8
20260904051133 25 165 0.0 0.0 0.00 0.00 0.00 91 1014.7
20260904050633 25 165 0.0 0.0 0.00 0.00 0.00 90 1014.7
20260904050133 25 165 0.0 0.0 0.00 0.00 0.00 90 1014.7
20260904045633 25 165 0.0 0.0 0.00 0.00 0.00 89 1014.7
20260904045134 25 165 0.0 0.0 0.00 0.00 0.00 89 1014.8
20260904044634 25 165 0.0 0.0 0.00 0.00 0.00 88 1014.8
20260904044134 25 165 0.0 0.0 0.00 0.00 0.00 88 1014.9
20260904043634 25 165 0.0 0.0 0.00 0.00 0.00 88 1014.8
20260904043134 25 165 0.0 0.0 0.00 0.00 0.00 88 1014.7
20260904042634 25 165 0.0 0.0 0.00 0.00 0.00 87 1014.7
20260904042134 26 165 0.0 0.0 0.00 0.00 0.00 87 1014.7
20260904041634 26 165 0.0 0.0 0.00 0.00 0.00 87 1014.8
20260904041134 26 165 0.0 0.0 0.00 0.00 0.00 86 1014.7
20260904040634 26 165 0.0 0.0 0.00 0.00 0.00 86 1014.8
20260904040134 25 165 0.0 0.0 0.00 0.00 0.00 86 1014.8
20260904035634 25 181 0.0 0.0 0.00 0.00 0.00 87 1014.9
20260904035134 25 181 0.0 0.0 0.00 0.00 0.00 87 1014.9